Flag for Turkey Weather past 2 weeks in Konya, Turkey

Now
43 °F

Partly cloudy.


Feels Like: 39 °F
Forecast: 32 / 47 °F
Wind: 7 mph from Southeast

Location: Konya Airport

Current Time: Jan 27, 2015 at 7:04:32 PM

Latest Report: Jan 27, 2015 at 5:50 PM


Visibility: N/A

Pressure: 29.89 "Hg

Humidity: 76%

Dew point: 36 °F

Location of KonyaLocation

Historic Weather in Konya — Graph

°F

Konya temperature yesterday

Maximum temperature yesterday: 52 °F (at 12:50 PM)
Minimum temperature yesterday: 36 °F (at 4:50 AM)
Average temperature yesterday: 43 °F

Past Weeks' High & Low Weather Summary

 TemperatureHumidityPressure
High55 °F (Jan 24, 1:50 PM)100% (Jan 14, 2:50 AM)30.42 "Hg (Jan 14, 2:50 AM)
Low23 °F (Jan 20, 7:00 AM)35% (Jan 24, 11:50 AM)29.86 "Hg (Jan 24, 12:50 PM)
Average35 °F86%30.14 "Hg
* Reported Jan 12 5:50 PM — Jan 27 5:50 PM, Konya, Weather by CustomWeather, © 2014

Note: Actual official high and low records may vary slightly from our data, if they occured in-between our weather recording intervals... More about our weather records

Advertising

Konya weather history for previous 24 hours

 ConditionsComfort  
Time TempWeatherWind HumidityBarometerVisibility
5:50 PM
Jan 27
43 °FPartly cloudy.7 mph76%29.89 "HgN/A
4:50 PM48 °FBroken clouds.6 mph58%29.89 "HgN/A
3:50 PM48 °FBroken clouds.3 mph62%29.92 "HgN/A
2:50 PM50 °FPassing clouds.5 mph54%29.95 "HgN/A
1:50 PM50 °FPassing clouds.5 mph54%29.95 "HgN/A
12:50 PM48 °FPassing clouds.8 mph58%30.01 "HgN/A
11:50 AM45 °FPassing clouds.6 mph71%30.04 "HgN/A
10:50 AM43 °FPassing clouds.6 mph71%30.07 "HgN/A
9:50 AM39 °FClear.5 mph81%30.07 "Hg4 mi
9:01 AM34 °FFog.2 mph93%30.09 "Hg2 mi
8:04 AM30 °FLight fog.5 mph93%30.09 "Hg0 mi
7:50 AM30 °FIce fog.No wind93%30.09 "Hg1 mi
6:50 AM28 °FIce fog.No wind93%30.09 "Hg2 mi
5:50 AM28 °FClear.3 mph100%30.07 "Hg10 mi
4:50 AM28 °FClear.5 mph93%30.09 "Hg4 mi
3:50 AM30 °FClear.2 mph93%30.09 "Hg4 mi
2:50 AM32 °FClear.1 mph93%30.09 "Hg4 mi
1:50 AM34 °FPassing clouds.5 mph81%30.09 "HgN/A
12:50 AM36 °FClear.7 mph81%30.12 "Hg10 mi
11:50 PM
Jan 26
36 °FClear.3 mph81%30.12 "Hg10 mi
10:50 PM37 °FClear.5 mph75%30.12 "Hg10 mi
9:50 PM39 °FClear.7 mph70%30.12 "Hg10 mi
8:50 PM39 °FClear.8 mph75%30.12 "Hg10 mi
7:50 PM41 °FPassing clouds.8 mph70%30.12 "HgN/A
Weather by CustomWeather, © 2014

See weather overviewHow to use our weather pages